Theta_e
292 291 291 290 290 290 290 289 289 290 290 290 290 289 289 289 289 290 290 290 289 288 287 286 285 286 286 285 284 285 284 285 288 286 285 284 283 282 282 282 282 283 283
290 289 289 288 288 288 288 288 287 288 288 288 288 288 288 288 288 288 288 287 287 286 285 284 284 284 283 283 282 283 282 283 283 284 283 283 282 281 280 280 281 281 282
289 288 288 287 287 286 286 286 286 286 286 286 286 286 286 286 287 286 286 285 284 284 283 283 283 281 281 281 281 281 280 281 281 282 282 282 280 279 279 279 279 280 280
288 287 287 286 285 285 285 285 285 285 285 285 285 285 285 285 285 285 284 283 283 283 281 281 280 280 280 280 280 280 279 280 280 280 280 279 278 278 277 277 278 278 277
287 286 285 285 284 284 283 283 284 284 284 284 284 283 283 283 283 282 282 281 280 281 280 278 277 278 279 280 279 279 278 279 279 278 278 277 277 276 276 276 276 276 276
286 285 284 283 283 283 283 283 282 282 283 283 282 282 282 282 282 281 280 280 279 278 278 278 276 277 278 278 278 278 277 278 277 276 276 276 275 275 275 275 275 275 275
285 284 283 282 282 282 281 281 281 281 281 281 281 281 281 280 280 280 279 278 277 277 277 277 276 276 277 277 276 276 275 277 276 274 274 274 273 274 273 273 273 272 272
284 283 282 282 281 281 280 280 280 280 281 280 280 280 280 280 279 278 277 277 276 276 276 275 275 275 277 276 275 274 274 274 273 272 271 272 272 272 272 272 270 269 269
282 282 282 281 280 280 280 280 279 279 279 279 278 279 279 279 278 277 277 276 275 275 274 274 274 275 276 275 273 273 273 273 271 270 270 270 270 270 270 269 268 267 268
282 282 281 281 280 279 279 279 278 279 278 277 277 277 278 278 278 277 276 276 275 274 274 273 273 274 274 274 271 272 271 270 268 269 268 268 267 267 267 266 266 266 266
281 281 280 279 279 279 278 278 278 278 277 277 276 275 276 277 276 277 275 275 274 273 273 272 271 273 272 272 271 271 270 267 266 266 266 266 266 266 265 265 265 265 265
281 280 279 278 278 278 277 277 277 277 277 276 275 274 274 275 275 275 275 274 273 272 271 270 270 271 270 269 268 269 267 265 264 264 264 263 263 263 263 263 263 263 263
279 278 278 277 277 277 276 276 276 276 275 274 274 273 272 273 274 273 273 273 273 271 270 269 269 268 267 266 266 266 264 264 263 263 262 262 261 261 261 261 261 262 262
277 276 276 275 275 275 275 275 275 275 274 274 273 272 271 271 271 271 271 271 271 270 269 267 266 266 265 264 264 264 263 262 261 261 260 260 260 260 260 260 260 260 260
275 275 274 274 274 274 274 274 274 274 274 273 272 272 270 270 271 272 272 271 270 269 268 265 264 264 263 262 262 261 261 260 260 260 259 259 259 258 259 259 259 259 258
274 273 273 272 272 272 272 272 272 273 272 272 271 270 269 270 271 271 272 271 270 267 265 264 262 261 261 260 260 260 259 259 258 258 258 258 257 257 257 258 258 257 258
273 272 271 271 271 271 271 271 271 272 273 272 271 271 269 269 270 270 270 268 266 264 263 262 261 260 260 259 259 258 258 258 258 258 257 257 257 257 256 256 256 256 256
272 272 271 271 270 270 270 270 269 270 270 270 269 268 269 268 268 269 268 266 264 262 262 261 260 259 259 259 258 258 258 258 257 257 257 257 257 256 255 255 255 255 255
270 270 270 269 269 269 269 269 268 268 267 267 266 266 266 265 266 267 263 263 262 262 261 260 260 259 259 258 258 258 257 257 257 257 257 257 257 256 255 255 255 255 254
269 269 269 268 268 267 267 267 266 266 265 264 264 264 263 263 263 264 263 262 262 261 261 260 260 259 259 259 258 258 257 257 257 257 257 257 257 256 255 254 254 254 254
267 267 267 267 266 266 265 265 265 265 264 264 263 263 263 263 264 263 262 261 261 260 260 260 260 259 259 259 258 258 257 257 258 258 257 258 257 256 256 255 254 254 254
266 266 265 265 265 265 265 265 264 263 263 262 262 262 263 263 263 262 261 261 260 260 259 259 260 259 259 258 258 258 258 258 259 258 257 257 257 257 256 255 255 255 254
266 265 265 265 264 263 263 263 262 262 262 262 261 261 261 261 261 261 260 260 260 260 259 259 259 259 259 259 258 258 257 258 258 257 257 257 257 257 256 255 255 254 254
265 265 264 263 262 262 262 262 262 262 261 261 261 261 260 260 260 260 260 260 260 260 260 259 259 259 259 259 259 258 258 258 257 257 257 256 256 256 256 255 255 255 255
263 263 263 263 262 262 262 261 261 261 261 260 260 260 260 259 259 260 260 260 259 259 260 259 259 259 259 259 259 259 259 259 258 258 258 257 257 257 257 256 257 257 257
263 262 262 262 261 261 261 261 260 260 260 260 259 259 259 259 260 260 260 259 259 259 259 260 259 259 259 259 259 259 259 259 260 260 259 258 258 258 258 257 258 257 258
Wind_Speed
11 10 10 11 11 12 12 12 12 12 12 11 11 12 12 13 14 15 16 17 19 20 18 18 18 15 15 16 13 12 10 7 0 4 12 19 23 28 32 32 32 29 31
14 13 12 12 12 12 12 12 12 12 12 12 12 13 13 14 15 16 18 17 19 18 18 16 16 14 13 13 12 10 10 7 4 7 13 16 20 23 30 32 35 33 38
18 17 16 15 14 13 12 12 13 13 14 14 13 13 14 15 16 17 17 18 17 17 16 16 15 12 13 11 11 10 10 8 8 6 10 16 21 23 31 30 33 36 39
21 20 18 16 15 14 13 14 14 14 15 15 14 14 15 16 16 17 17 17 17 17 15 15 14 14 12 10 10 10 10 10 10 10 9 13 15 26 23 27 31 30 36
25 22 20 18 16 15 15 15 15 16 17 16 16 16 16 15 14 16 15 15 16 16 14 13 13 13 12 11 9 10 13 12 11 12 12 14 18 26 25 24 27 30 30
28 26 22 20 18 17 16 17 17 17 18 18 17 16 14 15 13 13 14 15 13 12 13 10 9 11 11 10 10 10 12 12 12 12 11 14 17 21 23 25 25 26 9
31 28 25 23 21 19 18 18 19 20 20 19 17 15 14 12 11 11 11 11 11 11 10 8 7 10 11 8 7 9 11 10 11 9 10 12 15 19 22 25 24 23 22
32 30 28 26 23 22 20 20 20 20 21 21 19 17 14 10 10 10 10 10 10 10 10 8 8 10 11 8 7 8 9 8 10 8 9 10 12 16 17 18 21 23 25
32 32 32 30 27 26 26 24 23 22 20 21 19 18 15 11 9 9 9 9 8 8 7 8 8 10 9 9 7 7 7 6 8 10 10 10 11 12 15 19 23 23 14
35 35 34 31 30 29 28 27 25 23 21 19 18 18 16 12 8 7 8 8 7 7 6 5 10 8 8 8 6 6 7 8 11 14 13 12 11 13 14 14 17 17 17
32 33 32 31 30 29 28 28 26 23 21 20 19 20 18 14 10 8 6 7 5 6 5 4 5 6 6 6 7 7 6 6 8 11 12 14 16 18 18 17 14 14 15
33 33 31 30 28 28 27 26 25 24 24 22 22 19 16 14 10 8 6 7 6 7 4 2 4 4 5 6 7 7 5 7 10 13 15 16 17 19 20 18 15 15 16
31 30 29 28 27 27 27 24 22 23 21 20 20 18 18 17 14 9 7 6 6 6 4 2 3 4 3 3 8 8 7 10 12 14 14 13 14 17 19 20 21 22 23
29 29 27 25 25 26 23 23 20 20 19 18 17 15 15 15 12 11 7 5 6 6 3 2 3 3 4 3 4 7 8 9 9 10 13 16 17 20 22 22 24 25 24
21 24 26 23 23 21 21 22 21 21 20 19 19 22 20 15 12 7 7 6 6 5 3 3 2 2 3 3 5 6 7 9 10 12 15 18 18 20 20 23 24 24 19
20 19 19 21 20 19 19 16 12 14 11 11 14 16 13 10 7 6 7 7 7 4 5 2 2 2 3 4 6 8 8 9 11 13 15 16 17 19 20 24 23 21 20
14 15 17 16 17 19 17 18 18 15 13 12 12 11 10 9 6 6 7 7 6 4 4 3 1 1 3 5 7 8 11 12 13 14 16 18 20 22 22 22 22 20 21
19 21 22 21 20 21 20 17 18 19 18 16 11 9 10 8 6 7 7 6 4 2 3 3 2 3 5 7 8 10 12 14 15 16 18 18 20 21 23 23 22 21 21
20 19 19 20 20 21 22 22 20 20 19 19 15 10 12 7 6 7 5 4 5 5 5 5 6 7 8 9 9 11 13 16 17 18 18 19 20 21 24 25 24 26 23
15 17 18 19 19 19 19 20 19 19 19 20 18 17 14 11 10 9 7 6 7 7 7 8 8 9 10 11 12 13 15 16 16 18 19 19 21 22 24 26 26 24 24
14 14 16 17 18 17 18 18 18 19 20 19 16 14 11 10 9 9 8 8 9 10 9 10 11 12 12 13 14 15 17 19 18 18 19 20 22 25 25 26 27 27 27
13 13 15 17 16 16 17 17 17 17 15 13 12 11 8 12 12 12 12 11 11 11 11 12 13 14 14 15 16 17 19 21 20 19 20 22 23 25 27 27 28 29 27
16 16 15 14 14 15 15 14 14 13 12 11 11 11 12 13 14 14 13 12 12 12 12 14 16 17 16 16 17 18 21 22 21 21 23 23 25 27 28 28 29 29 28
15 15 15 15 15 15 14 13 12 12 11 12 12 12 12 12 13 13 13 12 13 13 14 16 18 19 18 18 18 19 21 22 22 23 24 24 27 28 28 29 32 32 31
15 15 15 15 15 15 14 14 14 13 13 14 14 14 13 13 14 14 13 14 15 16 17 17 19 20 20 20 21 21 21 21 22 23 25 26 26 27 30 33 34 33 32
15 16 15 15 16 16 16 16 16 15 16 15 15 15 15 15 15 16 15 16 17 18 19 20 20 21 22 23 23 22 22 21 22 21 23 26 30 32 33 33 31 28 28
Wind_Direction
191 185 176 167 164 163 163 157 156 152 154 150 142 136 132 129 124 125 123 123 118 112 109 102 94 94 87 79 68 65 46 48 30 285 313 336 348 350 349 351 352 350 345
195 189 186 181 176 173 167 162 159 155 153 149 144 139 134 134 136 129 123 119 118 114 111 106 97 91 81 72 60 57 38 33 10 299 314 336 337 348 344 348 350 350 348
199 195 192 191 186 180 172 166 161 157 154 148 144 138 136 134 131 128 126 121 114 108 105 104 101 88 81 71 56 49 30 23 20 326 319 334 335 345 350 347 348 346 346
202 199 198 195 191 184 177 170 164 161 156 148 142 136 139 136 134 132 131 125 125 120 110 108 98 82 73 63 49 41 28 25 18 359 341 331 344 345 349 345 342 341 336
202 200 200 197 193 187 179 172 167 163 159 153 146 137 135 136 140 138 135 131 125 121 113 103 88 84 66 55 47 39 35 32 25 11 0 345 348 351 352 336 329 331 339
203 202 198 193 190 187 182 176 170 164 162 158 149 142 134 137 130 139 141 136 129 121 120 115 89 78 66 60 55 50 44 38 30 14 355 350 340 339 336 334 332 344 340
204 201 196 193 191 189 183 176 171 166 163 158 149 139 124 122 120 120 132 132 127 121 119 116 86 62 50 47 58 55 54 51 37 16 353 346 331 335 335 334 334 332 318
198 198 197 194 192 188 183 181 174 170 166 161 152 143 121 109 117 120 128 131 121 120 115 107 89 68 47 30 45 44 43 44 25 12 350 335 336 335 336 326 326 323 321
188 192 195 195 191 188 186 183 179 172 170 163 162 149 137 126 120 126 142 137 125 121 114 100 73 65 50 41 47 43 32 21 359 355 356 352 345 344 344 339 352 349 338
187 190 195 197 194 188 187 183 180 174 169 165 163 158 148 135 124 125 137 137 135 138 134 109 63 56 53 50 62 44 26 1 352 349 355 354 351 350 357 1 349 343 342
183 189 193 194 192 190 187 183 177 167 163 168 163 160 161 152 140 125 127 126 149 148 145 109 76 56 62 56 59 42 25 347 357 358 359 358 354 357 355 351 344 336 321
184 185 186 188 185 187 185 181 176 174 168 165 162 160 166 167 142 127 118 112 132 137 142 122 89 76 72 60 51 34 30 10 7 8 7 359 351 350 344 340 334 325 315
179 180 184 183 184 186 181 174 169 172 166 166 162 161 172 173 156 147 132 134 125 136 156 93 87 87 77 61 41 28 6 4 3 1 354 347 340 337 335 341 340 338 331
172 170 175 173 179 182 181 177 173 176 174 170 167 166 175 175 168 169 149 153 159 171 195 175 109 111 72 39 9 7 10 2 355 343 338 336 338 342 341 344 336 338 327
170 169 164 171 172 169 175 176 178 186 185 175 180 185 181 174 169 169 164 178 175 187 182 168 140 61 27 5 356 356 353 351 348 339 335 337 336 335 337 341 340 331 317
165 167 162 159 160 158 156 145 164 179 169 177 179 183 175 165 168 173 174 164 148 196 187 152 83 27 357 335 333 334 335 337 335 330 328 329 327 331 330 334 334 324 314
157 148 147 149 149 148 150 149 144 149 152 153 155 162 166 160 171 181 176 149 141 177 170 162 184 301 312 307 309 315 320 323 322 321 320 322 327 330 332 325 324 318 313
172 168 167 167 169 165 162 158 157 153 158 160 168 168 173 173 175 180 173 193 198 206 188 200 234 272 289 299 304 308 312 313 313 313 312 317 319 322 323 321 319 311 309
169 160 170 173 180 175 173 173 173 173 177 183 189 180 183 181 175 177 189 232 223 222 234 250 271 284 294 296 298 302 303 303 304 306 307 310 313 318 317 317 313 312 309
169 178 179 180 181 179 178 177 179 186 189 196 198 203 203 203 198 213 241 249 245 247 250 262 271 282 290 294 296 297 296 296 299 300 303 305 310 313 309 311 311 304 303
166 171 179 182 183 181 182 185 190 193 196 198 199 201 204 217 230 231 247 252 251 255 259 268 277 284 289 290 290 293 295 296 299 300 301 303 307 307 308 308 306 306 302
177 180 186 189 187 191 197 199 198 199 199 200 202 204 204 233 240 251 255 252 249 255 262 270 275 279 284 285 287 290 292 292 295 297 298 300 302 303 304 305 304 306 304
190 192 195 201 205 204 202 203 204 207 210 216 218 221 223 232 242 247 249 250 252 258 264 271 277 281 284 285 288 289 286 289 293 291 291 293 295 296 298 297 300 299 297
205 207 209 209 209 212 215 216 217 222 232 233 236 239 243 246 250 254 258 262 264 267 269 273 279 285 289 291 291 290 290 292 290 286 285 285 288 291 291 292 295 296 296
212 213 215 218 221 224 227 230 233 236 239 245 246 251 256 257 259 265 269 270 272 274 275 277 280 285 287 289 289 293 297 295 289 285 284 286 286 288 288 288 292 295 295
222 224 228 228 229 232 235 238 241 243 247 250 255 258 260 264 269 273 275 277 278 278 280 281 283 287 289 291 293 295 294 289 287 285 293 294 287 287 287 288 291 287 282